カタログに戻る

SCOUT G-1 R/B

運用中PO
NORAD 19421·ROCKET BODY·🇺🇸 United States

打ち上げ Aug 25, 1988 から Vandenberg Space Force Base

Loading…

次のパス (今後24時間)

TLE

最新Source: Space-Track

元期: Sep 14, 2026, 15:23 UTC

1 19421U 88074C   26257.64157145  .00000071  00000-0  10731-3 0  9992
2 19421  90.0510  21.8521 0094802 208.3441 162.6801 13.42036983862827

AllMySatでSCOUT G-1 R/Bをリアルタイム追跡

Download on the App Store